Temperature
18 18 18 18 18 18 18 18 18 18 18 18 18 18 18 18 18 18 18 18 19 19 18 18 18 18 18 18 18 18 18 18 18 17 17 17 17 17 17 17 17 16 16
18 18 18 18 18 18 18 18 18 18 18 18 18 18 18 18 18 18 18 18 18 19 19 18 18 18 18 18 18 18 18 18 18 18 18 17 17 17 17 17 17 17 16
17 17 17 17 17 17 18 18 18 18 17 17 17 18 18 18 18 18 18 18 18 18 19 19 19 18 18 18 18 18 18 18 18 18 18 18 18 17 17 17 17 17 17
17 17 17 17 17 17 17 17 17 17 17 18 18 18 18 18 18 18 18 18 18 18 18 19 19 19 19 18 18 18 18 18 18 18 18 18 18 18 18 18 17 17 17
17 17 17 16 16 16 16 16 17 17 17 17 17 18 18 18 18 18 18 18 18 18 18 18 19 19 19 19 19 19 19 19 18 18 18 18 18 18 18 18 18 17 17
16 16 16 16 16 16 16 16 16 16 16 17 17 18 17 18 18 18 18 18 18 18 18 18 18 19 19 19 19 19 19 19 19 19 18 18 18 18 18 18 18 18 17
16 16 15 15 15 15 15 15 15 16 16 16 17 17 18 18 18 18 18 18 19 18 18 18 18 18 18 19 19 20 19 19 19 19 19 18 18 18 18 18 18 18 18
16 15 15 15 15 15 15 15 15 15 16 16 16 17 18 19 19 19 18 18 18 18 18 18 18 18 18 18 19 19 19 19 19 19 18 18 18 18 18 18 18 17 17
16 16 15 15 15 15 15 15 15 14 15 16 16 16 18 19 20 20 19 18 18 18 18 18 18 17 17 18 18 18 18 18 18 18 18 18 18 18 18 18 18 17 17
15 15 15 15 15 14 14 14 14 14 14 15 15 16 16 17 18 19 19 18 17 17 17 17 17 17 17 17 17 17 18 18 18 18 18 18 17 17 17 17 17 17 17
15 14 14 14 14 14 14 14 14 14 14 14 15 15 16 16 16 16 18 18 18 17 17 16 16 16 16 16 16 16 17 17 17 17 17 17 17 17 17 17 17 17 17
15 14 14 14 14 14 14 14 14 14 14 14 14 15 15 15 16 16 17 17 17 17 16 16 16 16 16 16 16 16 16 16 16 16 16 16 16 17 17 17 17 17 17
15 14 14 14 14 13 14 13 13 13 13 14 14 14 14 15 15 15 16 16 16 16 15 15 15 15 15 15 15 15 15 15 15 15 15 15 15 16 16 16 17 17 17
15 14 14 14 14 13 13 13 13 13 13 14 14 14 14 14 15 15 15 15 15 15 15 14 14 14 14 14 14 14 14 14 14 14 14 14 15 15 15 16 16 16 16
15 14 14 14 13 13 13 13 13 13 13 13 14 14 14 14 15 15 15 15 14 14 14 13 13 13 13 13 13 13 13 13 13 14 14 14 14 14 14 15 15 15 16
15 14 14 13 13 13 13 13 13 13 13 13 14 14 14 14 14 14 14 14 14 14 14 13 13 13 13 13 13 13 13 13 13 13 13 13 13 14 14 14 14 14 15
14 14 14 13 13 13 12 13 13 13 13 13 13 13 13 14 14 14 14 14 14 14 13 12 12 12 12 12 12 12 12 13 13 13 13 13 13 13 13 13 13 14 14
14 14 13 13 13 12 12 12 13 13 13 13 13 13 13 13 13 13 13 13 13 13 13 12 12 12 12 12 12 12 12 12 12 12 12 12 12 12 12 13 13 13 13
13 13 13 13 12 12 12 12 12 12 12 13 13 13 13 13 13 13 13 13 13 13 13 12 12 11 11 11 11 11 11 11 11 11 12 12 12 12 12 12 12 13 13
12 12 12 12 12 12 12 12 12 12 12 12 12 12 12 12 12 12 12 12 12 12 12 12 11 11 11 11 11 11 11 11 11 11 11 11 11 11 12 12 12 12 12
11 12 12 12 12 12 12 12 12 12 12 12 12 12 12 12 12 12 12 12 12 12 12 12 12 12 12 12 12 12 12 11 11 11 11 11 10 10 10 11 11 11 12
10 11 11 12 12 12 12 12 12 12 11 12 11 11 12 12 12 11 11 11 11 11 12 12 12 12 11 12 12 12 12 12 11 11 11 10 10 10 10 10 10 10 11
10 10 11 11 11 12 12 12 12 11 11 11 11 11 11 11 11 11 11 11 11 11 11 12 12 11 11 11 11 12 12 12 12 11 11 10 10 9 9 9 9 9 10
9 10 10 11 11 11 12 12 12 11 11 11 11 11 11 11 11 11 11 11 11 11 11 11 11 11 11 11 11 11 11 11 10 10 11 11 10 9 9 8 9 9 9
8 9 9 10 10 11 11 11 11 11 11 11 11 11 11 11 11 11 11 11 11 11 11 11 11 11 11 10 10 11 11 12 11 11 10 11 10 10 9 8 8 8 8
8 8 9 9 10 10 11 11 11 11 11 11 10 11 11 11 11 11 11 11 10 10 10 10 10 10 10 10 10 10 11 12 12 11 10 10 10 10 9 9 9 8 8
Wind_Speed
9 9 8 9 11 11 10 10 11 11 11 12 13 14 14 14 13 13 11 13 16 17 17 17 17 17 17 18 18 19 20 22 24 26 27 27 27 27 26 25 24 24 24
9 9 10 10 11 12 12 11 12 12 12 12 13 14 14 15 13 13 14 13 17 19 18 17 16 16 17 17 18 19 19 20 21 24 26 27 28 28 27 26 26 25 25
11 9 10 11 11 12 13 12 13 12 13 13 15 15 14 13 14 14 15 14 14 18 21 19 18 17 17 17 18 19 20 20 20 22 24 26 27 28 28 27 27 26 26
10 9 9 10 10 11 10 10 11 12 12 13 13 13 12 12 15 15 15 15 15 15 17 21 19 18 17 17 18 19 20 21 22 22 24 25 26 27 28 28 27 27 26
9 8 9 9 10 10 10 11 11 11 12 13 13 13 13 13 13 15 16 16 16 16 16 14 18 18 18 19 19 19 20 21 23 23 24 25 26 26 27 27 28 27 26
8 9 9 9 11 11 11 11 12 12 12 12 14 14 13 14 13 15 16 15 15 17 18 17 14 16 21 21 20 19 20 21 23 24 25 25 26 26 26 27 27 27 27
8 8 10 10 11 12 12 14 13 15 13 12 12 13 14 16 16 15 15 15 16 16 16 15 14 13 12 19 21 20 20 21 22 24 26 26 26 26 27 27 27 27 28
8 9 9 11 11 11 13 13 13 13 13 11 11 12 13 13 13 16 14 15 16 14 15 15 14 12 12 11 11 17 18 20 21 22 24 26 26 26 26 27 27 27 28
8 8 10 11 11 12 12 12 13 15 14 13 13 12 11 12 11 11 13 13 13 12 13 13 13 12 13 11 11 11 13 15 18 20 21 24 25 26 26 26 27 27 27
8 8 9 10 10 11 12 12 13 13 14 14 13 13 15 15 12 12 10 11 12 12 13 11 11 11 11 9 7 4 4 7 11 14 15 16 20 22 23 24 26 27 27
7 8 8 9 10 10 11 12 12 13 12 13 13 13 14 13 15 14 13 11 10 10 10 10 9 7 7 7 5 2 3 1 3 4 5 6 8 11 16 20 23 25 27
7 7 8 9 10 10 11 12 12 14 13 13 13 13 13 12 12 13 14 13 10 8 7 5 5 4 4 3 2 8 7 6 5 4 4 4 2 1 3 8 14 19 23
7 7 8 9 10 10 11 12 12 13 13 14 13 13 13 13 13 12 12 12 10 6 4 3 1 2 2 3 6 9 9 8 8 9 9 9 9 8 7 4 1 4 9
8 8 9 10 11 12 12 12 12 13 12 13 14 14 12 12 12 12 12 10 8 6 5 3 3 2 2 3 7 5 8 10 11 12 13 13 13 13 12 11 11 10 8
8 9 10 11 11 12 12 13 12 12 12 12 12 13 12 11 10 10 10 10 9 7 5 4 3 3 3 4 4 5 8 11 12 13 14 15 15 15 15 14 15 15 15
10 10 11 11 11 12 12 12 12 11 12 11 10 10 10 9 9 9 8 8 9 7 4 3 3 4 4 5 5 8 11 13 14 14 16 16 16 16 16 15 16 16 16
11 11 11 11 12 12 11 11 12 12 12 11 10 9 9 9 7 6 6 6 6 5 6 5 4 4 5 6 5 8 10 10 12 16 17 18 18 18 16 16 16 16 15
13 13 12 12 12 12 11 11 11 11 10 9 8 6 6 5 4 3 2 3 3 5 9 10 5 4 5 6 7 8 9 11 12 17 19 19 19 18 17 17 16 16 15
14 14 13 13 12 11 11 10 9 9 7 6 4 4 3 2 1 1 2 4 5 6 8 9 7 5 5 7 9 10 11 9 12 15 18 18 18 18 17 16 16 16 15
15 15 14 13 12 11 10 9 7 6 5 3 1 1 0 2 3 4 5 6 7 8 9 9 9 8 8 9 9 10 10 8 9 10 11 13 16 18 18 17 17 16 16
16 15 15 15 13 11 10 8 6 5 4 2 2 2 4 6 7 6 6 7 7 8 8 8 9 9 9 9 8 8 10 9 8 7 8 8 9 9 12 15 16 16 16
15 15 16 16 14 11 5 4 7 6 4 4 4 5 7 8 10 11 10 8 5 6 8 8 8 9 8 8 7 7 9 8 7 5 6 7 7 9 9 12 13 15 16
14 14 15 16 15 11 11 9 7 5 5 5 6 6 7 9 10 11 11 10 9 8 5 7 10 10 9 8 7 7 5 6 7 6 6 7 7 9 10 12 13 15 16
12 12 13 15 15 13 15 12 9 8 7 7 7 8 9 10 10 11 11 10 9 8 7 9 10 9 9 7 6 8 9 9 7 4 3 6 7 7 9 10 12 13 14
12 12 11 13 15 13 16 15 13 10 9 9 9 9 10 11 9 9 12 12 11 9 13 16 14 12 12 9 3 6 7 7 8 6 3 5 6 6 6 7 9 12 11
13 12 10 12 14 14 17 18 16 11 11 10 9 8 8 10 10 7 11 12 13 12 12 12 11 10 9 7 3 2 3 5 7 6 4 2 5 5 5 4 4 4 5
Wind_Direction
262 268 272 274 274 273 265 257 263 268 266 264 261 258 258 255 248 248 250 219 222 233 241 244 242 239 237 236 237 237 234 229 225 221 219 219 220 222 224 226 227 227 226
272 276 277 275 272 271 272 272 268 267 263 261 262 263 262 260 253 247 251 241 218 225 235 241 244 243 241 242 242 240 237 232 227 221 218 218 219 220 222 224 226 227 227
275 277 279 277 275 277 274 269 267 264 261 259 258 258 257 253 252 247 247 252 247 225 222 229 236 241 243 244 245 242 237 232 227 222 219 218 219 219 220 222 225 226 226
287 286 282 282 288 283 277 272 267 266 263 261 261 258 254 249 246 246 244 242 246 250 230 218 223 232 240 246 247 244 238 233 228 224 221 220 219 219 219 221 223 225 225
294 291 291 294 293 285 280 277 274 269 269 266 263 257 254 251 247 245 243 244 242 241 247 228 213 224 235 243 245 245 241 235 229 224 221 220 220 220 219 219 221 223 224
294 298 292 293 293 289 284 280 281 274 269 269 268 267 259 254 247 245 243 242 242 242 241 244 234 227 225 231 235 240 243 240 232 226 222 221 221 220 219 219 219 221 223
297 294 294 298 288 285 285 285 281 276 269 266 266 265 259 251 246 245 243 244 241 239 239 240 242 245 236 222 224 231 238 242 239 231 225 222 221 219 219 219 220 220 221
297 293 295 292 290 289 282 277 273 275 275 266 261 269 268 258 243 240 238 237 242 241 237 234 235 235 245 250 233 219 230 240 242 239 231 224 221 219 218 218 219 220 220
299 300 296 292 293 287 283 281 279 271 271 268 257 257 266 266 267 246 232 238 240 240 240 237 232 234 238 243 252 225 221 235 243 245 239 230 224 221 219 218 219 219 219
297 298 294 291 288 286 284 278 272 271 269 267 260 250 254 269 273 267 246 231 231 235 239 238 236 234 236 240 236 258 227 244 249 249 246 239 232 227 223 220 221 220 219
292 295 298 297 292 287 286 284 281 271 266 263 265 260 254 252 251 255 259 252 233 230 230 229 234 235 234 237 242 218 136 193 249 246 245 244 241 236 229 226 227 226 223
296 299 300 296 291 289 288 284 280 274 267 265 264 263 259 254 249 246 249 251 249 240 226 224 226 225 220 215 148 97 97 96 92 85 80 77 81 100 236 236 235 235 232
300 305 302 297 294 292 290 287 283 278 272 266 261 258 257 254 256 257 254 254 251 236 205 193 196 200 180 145 116 107 100 97 93 88 82 76 72 66 58 45 350 254 243
297 304 295 292 293 293 292 290 286 279 274 270 265 261 258 254 251 248 247 247 244 226 202 163 93 76 90 103 100 114 108 99 94 89 85 79 74 69 65 61 60 59 59
282 285 287 289 291 292 292 290 284 283 280 275 271 265 259 258 253 249 243 236 232 222 198 154 121 73 80 89 102 118 110 101 99 94 90 85 79 73 69 66 64 62 61
272 276 279 283 287 290 291 290 287 282 281 279 275 272 266 260 255 250 243 236 228 222 184 137 116 106 92 94 85 100 101 99 92 95 92 87 82 75 70 67 65 63 63
266 265 270 276 281 285 289 291 290 288 281 281 279 272 269 267 260 255 246 233 216 190 147 120 111 110 108 109 105 101 103 96 91 90 91 87 83 79 73 68 66 65 64
263 260 261 267 273 278 283 287 290 290 286 285 283 279 278 271 260 254 235 202 162 150 143 133 128 126 118 117 113 106 100 95 95 90 90 88 84 81 76 71 68 65 63
268 261 256 258 265 272 277 279 284 286 284 286 286 283 282 275 221 128 122 122 120 127 130 133 133 133 133 133 125 116 112 114 107 105 96 91 89 85 79 74 69 65 62
274 262 255 253 256 261 264 267 270 272 268 275 287 277 64 97 109 117 115 120 123 126 132 135 139 144 144 147 140 132 127 123 117 112 104 108 105 94 83 74 69 65 62
279 265 257 251 248 248 249 249 248 244 233 191 131 98 88 89 95 102 115 120 127 133 139 143 144 146 146 154 147 137 125 123 118 128 133 131 121 100 91 80 69 62 59
287 272 258 249 243 239 166 192 248 222 204 172 141 120 116 112 103 95 95 95 108 143 146 146 141 135 137 138 132 141 144 140 128 127 124 111 103 92 80 76 65 61 57
295 283 264 249 240 218 164 187 224 216 184 160 146 143 130 121 126 121 108 99 80 65 97 123 122 123 124 125 139 135 117 121 113 135 139 120 112 103 97 85 78 70 63
294 290 275 255 240 209 173 182 192 195 166 154 148 139 132 136 134 135 135 124 111 86 89 103 107 107 110 112 112 112 117 121 123 121 151 133 129 120 113 103 97 85 74
288 288 280 264 242 206 175 177 190 179 163 155 149 144 145 142 136 145 139 131 120 103 73 72 75 81 69 56 65 148 160 153 132 121 130 136 137 130 123 122 125 126 108
280 283 279 266 245 214 177 178 196 180 164 156 146 141 138 140 150 168 151 144 138 132 126 116 107 115 111 100 38 107 154 148 138 121 98 137 145 151 131 105 90 106 114
Height
1539 1539 1538 1537 1537 1537 1537 1536 1535 1535 1534 1534 1534 1534 1534 1534 1534 1534 1533 1533 1533 1534 1535 1536 1536 1537 1538 1539 1540 1542 1543 1544 1545 1546 1548 1549 1550 1552 1554 1556 1558 1560 1562
1534 1534 1533 1532 1532 1531 1531 1530 1529 1529 1528 1528 1527 1528 1528 1528 1528 1528 1528 1529 1528 1529 1530 1531 1531 1532 1533 1535 1536 1537 1538 1539 1540 1542 1543 1544 1545 1547 1548 1551 1553 1555 1557
1531 1530 1529 1527 1527 1526 1525 1524 1523 1523 1522 1522 1521 1521 1521 1521 1521 1522 1522 1523 1524 1523 1524 1525 1526 1527 1528 1529 1530 1531 1533 1534 1535 1537 1538 1539 1540 1542 1543 1545 1547 1550 1552
1527 1526 1525 1523 1522 1520 1519 1518 1517 1517 1516 1515 1515 1514 1514 1514 1514 1515 1515 1516 1517 1518 1519 1518 1519 1521 1522 1523 1524 1526 1527 1528 1530 1531 1533 1534 1535 1536 1538 1540 1542 1544 1546
1524 1522 1521 1519 1517 1516 1515 1513 1512 1511 1510 1509 1508 1507 1507 1507 1508 1508 1509 1510 1510 1511 1512 1513 1513 1514 1516 1517 1518 1520 1521 1522 1524 1525 1527 1528 1529 1531 1532 1534 1536 1538 1540
1521 1519 1517 1515 1513 1512 1510 1509 1507 1505 1504 1503 1503 1502 1501 1501 1501 1501 1502 1503 1503 1504 1505 1507 1507 1508 1508 1510 1511 1513 1514 1516 1517 1518 1520 1522 1523 1525 1526 1528 1530 1532 1534
1516 1513 1512 1510 1508 1507 1505 1503 1502 1500 1499 1499 1497 1495 1494 1494 1494 1494 1495 1496 1496 1497 1498 1499 1500 1501 1502 1503 1504 1505 1507 1508 1510 1511 1513 1514 1516 1518 1520 1521 1524 1526 1528
1511 1509 1507 1505 1503 1501 1498 1496 1495 1494 1493 1494 1492 1491 1489 1488 1486 1487 1487 1488 1489 1490 1491 1492 1492 1493 1495 1496 1497 1497 1499 1500 1501 1503 1505 1507 1509 1511 1513 1515 1517 1519 1522
1506 1504 1501 1499 1497 1495 1493 1491 1489 1488 1487 1487 1487 1486 1484 1480 1480 1480 1480 1481 1482 1483 1484 1485 1486 1487 1487 1488 1490 1490 1490 1492 1493 1495 1496 1499 1501 1504 1506 1508 1510 1513 1515
1502 1499 1497 1494 1492 1490 1487 1485 1484 1482 1481 1480 1480 1479 1479 1478 1477 1475 1475 1475 1475 1476 1477 1479 1480 1480 1480 1481 1482 1483 1483 1484 1486 1487 1489 1491 1494 1497 1499 1501 1504 1506 1508
1498 1495 1493 1490 1487 1485 1482 1480 1477 1476 1475 1473 1473 1473 1472 1471 1471 1471 1470 1470 1470 1470 1471 1472 1473 1474 1475 1475 1476 1476 1477 1478 1479 1480 1482 1484 1487 1490 1492 1495 1497 1499 1501
1496 1493 1489 1486 1483 1481 1478 1475 1472 1470 1468 1467 1466 1466 1466 1465 1465 1465 1464 1464 1464 1465 1465 1466 1467 1468 1469 1470 1470 1471 1472 1473 1474 1475 1476 1479 1481 1484 1486 1488 1491 1493 1495
1492 1489 1486 1483 1480 1477 1474 1471 1468 1465 1463 1461 1460 1459 1458 1458 1459 1459 1459 1458 1459 1459 1460 1461 1462 1463 1464 1465 1466 1467 1468 1469 1470 1471 1472 1474 1476 1479 1481 1483 1485 1487 1488
1488 1485 1481 1479 1476 1473 1470 1467 1464 1461 1458 1456 1454 1453 1452 1451 1452 1452 1452 1453 1454 1455 1456 1457 1458 1459 1461 1462 1463 1465 1466 1467 1467 1468 1469 1471 1473 1475 1476 1478 1480 1481 1483
1483 1480 1477 1475 1472 1469 1466 1463 1460 1457 1454 1451 1449 1448 1446 1445 1445 1446 1446 1447 1450 1451 1453 1454 1455 1457 1459 1460 1462 1463 1465 1466 1467 1468 1469 1470 1471 1473 1474 1476 1477 1477 1478
1478 1476 1474 1471 1468 1466 1463 1459 1456 1453 1450 1447 1444 1442 1441 1440 1440 1440 1441 1442 1444 1447 1449 1451 1453 1455 1457 1459 1461 1463 1464 1465 1467 1468 1469 1470 1471 1472 1474 1475 1475 1476 1476
1472 1471 1469 1467 1464 1462 1459 1456 1453 1449 1446 1443 1440 1438 1437 1436 1435 1436 1437 1438 1440 1442 1445 1448 1451 1454 1457 1459 1461 1463 1464 1466 1467 1468 1469 1470 1471 1472 1474 1475 1475 1475 1476
1466 1465 1463 1462 1460 1458 1455 1452 1449 1446 1442 1440 1437 1435 1433 1433 1432 1433 1433 1435 1437 1439 1443 1446 1450 1454 1457 1459 1461 1463 1465 1467 1468 1469 1470 1471 1472 1473 1474 1475 1476 1475 1476
1459 1458 1457 1456 1454 1453 1451 1448 1445 1442 1439 1437 1435 1433 1432 1431 1431 1431 1432 1433 1436 1439 1442 1446 1450 1454 1457 1460 1462 1464 1466 1468 1470 1471 1472 1473 1474 1475 1475 1476 1476 1476 1476
1452 1451 1451 1450 1449 1448 1446 1444 1441 1439 1437 1435 1433 1432 1431 1430 1430 1431 1432 1434 1436 1439 1443 1447 1451 1455 1458 1461 1464 1466 1468 1471 1473 1474 1474 1475 1475 1476 1476 1476 1476 1476 1476
1445 1444 1444 1443 1443 1442 1441 1440 1438 1436 1435 1433 1432 1432 1431 1431 1431 1432 1434 1436 1438 1441 1445 1448 1452 1456 1459 1462 1465 1468 1470 1472 1474 1476 1477 1478 1478 1478 1478 1477 1477 1477 1476
1437 1436 1435 1436 1437 1437 1436 1435 1434 1434 1433 1432 1432 1432 1432 1432 1433 1435 1437 1439 1442 1445 1448 1451 1454 1457 1460 1464 1466 1469 1471 1473 1475 1478 1479 1480 1480 1480 1479 1478 1478 1478 1478
1430 1428 1427 1428 1429 1430 1430 1430 1430 1431 1431 1431 1432 1432 1433 1434 1436 1438 1440 1443 1446 1449 1452 1454 1456 1459 1462 1464 1468 1470 1471 1473 1475 1477 1479 1480 1481 1481 1480 1479 1479 1479 1478
1423 1421 1419 1420 1421 1423 1424 1426 1427 1429 1430 1430 1431 1433 1434 1436 1438 1440 1443 1446 1449 1452 1455 1457 1458 1461 1463 1466 1468 1470 1471 1473 1475 1477 1479 1480 1481 1482 1482 1481 1480 1480 1479
1417 1414 1412 1411 1413 1416 1418 1421 1424 1427 1428 1430 1432 1433 1435 1438 1440 1443 1445 1448 1451 1454 1457 1459 1461 1463 1464 1467 1469 1472 1474 1475 1476 1478 1479 1480 1481 1482 1483 1483 1481 1480 1479
1410 1407 1404 1403 1405 1408 1412 1416 1420 1424 1426 1429 1431 1433 1436 1439 1442 1444 1447 1450 1453 1456 1458 1461 1463 1465 1467 1468 1470 1472 1474 1475 1476 1477 1478 1480 1481 1482 1483 1484 1483 1482 1481